Date String (YYYY-MM-DD hh:mm:ss) UTC,Instrument flags,Ambient pressure (hPa),Sample flow (lpm),Bypass flow (lpm),Sample temperature (°C),Ambient temperature (°C),ASC tube jacket temperature (°C),LED temperature (°C),Box temperature (°C),Sample RH (%),Span deviation,Mass concentration (μg/m³),Mass concentration (μg/m³),Mass concentration (μg/m³)
DateTimeUTC,F1_M11,P_M11,Q1_M11,Q2_M11,T1_M11,T2_M11,T3_M11,T4_M11,T5_M11,U1_M11,ZSPAN_M11,X0_M11,X2_M11,X1_M11
2022-06-22 00:00:00,,0833.0,5.00,0.00,29.2,27.3,00.0,38.0,31.0,13.5,0000.0,0012.36,0003.53,0001.75
2022-06-22 00:01:00,,0833.1,5.01,0.00,29.2,27.5,00.0,38.0,31.1,13.5,0000.0,0011.96,0003.49,0001.71
2022-06-22 00:02:00,,0833.1,4.99,0.00,29.2,27.6,00.0,38.0,31.1,13.5,0000.0,0011.18,0003.53,0001.68
2022-06-22 00:03:00,,0833.1,5.01,0.00,29.2,27.8,00.0,38.0,31.2,13.4,0000.0,0010.36,0003.53,0001.65
2022-06-22 00:04:00,,0833.1,5.00,0.00,29.3,28.0,00.0,38.0,31.2,13.4,0000.0,0010.36,0003.50,0001.64
2022-06-22 00:05:00,,0833.1,4.99,0.00,29.3,28.2,00.0,38.1,31.3,13.3,0000.0,0010.21,0003.45,0001.63
2022-06-22 00:06:00,,0833.1,5.00,0.00,29.3,28.3,00.0,38.1,31.3,13.4,0000.0,0010.02,0003.41,0001.61
2022-06-22 00:07:00,,0833.1,5.00,0.00,29.4,28.4,00.0,38.1,31.4,13.4,0000.0,0010.02,0003.40,0001.60
2022-06-22 00:08:00,,0833.2,5.00,0.00,29.4,28.5,00.0,38.1,31.4,13.5,0000.0,0010.46,0003.43,0001.60
2022-06-22 00:09:00,,0833.1,4.99,0.00,29.4,28.6,00.0,38.1,31.5,13.6,0000.0,0010.11,0003.39,0001.60
2022-06-22 00:10:00,,0833.1,5.00,0.00,29.5,28.7,00.0,38.2,31.5,13.5,0000.0,0009.82,0003.36,0001.59
2022-06-22 00:11:00,,0833.1,5.01,0.00,29.5,28.5,00.0,38.2,31.4,13.4,0000.0,0009.84,0003.34,0001.58
2022-06-22 00:12:00,,0833.1,4.99,0.00,29.4,27.5,00.0,38.1,31.2,13.4,0000.0,0009.70,0003.34,0001.59
2022-06-22 00:13:00,,0833.0,5.00,0.00,29.3,27.0,00.0,38.0,31.0,13.5,0000.0,0009.63,0003.35,0001.60
2022-06-22 00:14:00,,0833.1,5.01,0.00,29.3,27.0,00.0,38.0,31.0,13.7,0000.0,0009.51,0003.37,0001.59
2022-06-22 00:15:00,,0833.0,5.00,0.00,29.2,27.1,00.0,38.0,31.0,13.7,0000.0,0009.73,0003.36,0001.58
2022-06-22 00:16:00,,0833.1,5.00,0.00,29.2,27.2,00.0,38.0,31.0,13.5,0000.0,0009.17,0003.31,0001.57
2022-06-22 00:17:00,,0833.1,4.99,0.00,29.2,27.4,00.0,38.0,31.0,13.4,0000.0,0009.50,0003.31,0001.57
2022-06-22 00:18:00,,0833.1,5.00,0.00,29.2,27.6,00.0,38.0,31.1,13.4,0000.0,0009.75,0003.35,0001.57
2022-06-22 00:19:00,,0833.1,5.00,0.00,29.2,27.8,00.0,38.0,31.1,13.4,0000.0,0009.41,0003.35,0001.56
2022-06-22 00:20:00,,0833.1,5.01,0.00,29.3,28.0,00.0,38.0,31.2,13.4,0000.0,0009.24,0003.34,0001.55
2022-06-22 00:21:00,,0833.2,5.00,0.00,29.3,28.1,00.0,38.0,31.2,13.4,0000.0,0009.61,0003.35,0001.56
2022-06-22 00:22:00,,0833.1,4.99,0.00,29.3,28.3,00.0,38.1,31.3,13.4,0000.0,0009.97,0003.35,0001.56
2022-06-22 00:23:00,,0833.1,5.01,0.00,29.3,28.4,00.0,38.1,31.3,13.5,0000.0,0010.53,0003.35,0001.54
2022-06-22 00:24:00,,0833.2,5.01,0.00,29.4,28.5,00.0,38.1,31.4,13.6,0000.0,0010.41,0003.28,0001.51
2022-06-22 00:25:00,,0833.2,4.99,0.00,29.4,28.6,00.0,38.1,31.4,13.5,0000.0,0010.22,0003.23,0001.51
2022-06-22 00:26:00,,0833.2,4.99,0.00,29.5,28.7,00.0,38.2,31.5,13.5,0000.0,0009.84,0003.23,0001.52
2022-06-22 00:27:00,,0833.1,5.01,0.00,29.5,28.8,00.0,38.2,31.5,13.4,0000.0,0010.11,0003.27,0001.51
2022-06-22 00:28:00,,0833.2,5.00,0.00,29.5,28.5,00.0,38.2,31.5,13.3,0000.0,0009.80,0003.30,0001.51
2022-06-22 00:29:00,,0833.2,5.00,0.00,29.5,27.6,00.0,38.1,31.2,13.4,0000.0,0009.54,0003.33,0001.52
2022-06-22 00:30:00,,0833.2,5.00,0.00,29.4,27.0,00.0,38.1,31.1,13.6,0000.0,0009.56,0003.37,0001.53
2022-06-22 00:31:00,,0833.1,5.00,0.00,29.3,27.0,00.0,38.0,31.0,13.7,0000.0,0009.59,0003.40,0001.54
2022-06-22 00:32:00,,0833.2,5.01,0.00,29.3,27.1,00.0,38.0,31.0,13.8,0000.0,0009.63,0003.43,0001.55
2022-06-22 00:33:00,,0833.2,5.00,0.00,29.2,27.2,00.0,38.0,31.0,13.9,0000.0,0009.57,0003.46,0001.56
2022-06-22 00:34:00,,0833.2,4.99,0.00,29.2,27.4,00.0,38.0,31.1,13.7,0000.0,0009.08,0003.45,0001.57
2022-06-22 00:35:00,,0833.2,5.00,0.00,29.2,27.6,00.0,38.0,31.1,13.7,0000.0,0008.94,0003.47,0001.58
2022-06-22 00:36:00,,0833.3,5.00,0.00,29.2,27.8,00.0,38.0,31.2,13.6,0000.0,0008.96,0003.51,0001.59
2022-06-22 00:37:00,,0833.3,5.01,0.00,29.3,28.0,00.0,38.1,31.2,13.7,0000.0,0008.71,0003.46,0001.57
2022-06-22 00:38:00,,0833.2,4.99,0.00,29.3,28.1,00.0,38.1,31.3,13.7,0000.0,0008.44,0003.44,0001.59
2022-06-22 00:39:00,,0833.3,5.00,0.00,29.3,28.2,00.0,38.1,31.3,13.8,0000.0,0008.38,0003.41,0001.60
2022-06-22 00:40:00,,0833.3,5.00,0.00,29.4,28.4,00.0,38.1,31.3,13.8,0000.0,0008.73,0003.38,0001.61
2022-06-22 00:41:00,,0833.3,5.00,0.00,29.4,28.5,00.0,38.1,31.4,13.6,0000.0,0008.93,0003.34,0001.62
2022-06-22 00:42:00,,0833.3,4.99,0.00,29.4,28.6,00.0,38.1,31.4,13.5,0000.0,0009.87,0003.33,0001.62
2022-06-22 00:43:00,,0833.3,5.01,0.00,29.5,28.7,00.0,38.2,31.5,13.4,0000.0,0009.90,0003.29,0001.63
2022-06-22 00:44:00,,0833.4,5.01,0.00,29.5,28.8,00.0,38.2,31.5,13.5,0000.0,0009.87,0003.27,0001.63
2022-06-22 00:45:00,,0833.3,5.00,0.00,29.5,28.6,00.0,38.2,31.5,13.5,0000.0,0010.33,0003.26,0001.63
2022-06-22 00:46:00,,0833.3,4.99,0.00,29.5,27.8,00.0,38.1,31.3,13.3,0000.0,0010.42,0003.24,0001.64
2022-06-22 00:47:00,,0833.3,4.99,0.00,29.4,27.5,00.0,38.1,31.2,13.2,0000.0,0010.84,0003.20,0001.65
2022-06-22 00:48:00,,0833.4,5.00,0.00,29.4,27.5,00.0,38.1,31.2,13.3,0000.0,0010.97,0003.21,0001.67
2022-06-22 00:49:00,,0833.4,5.00,0.00,29.4,27.6,00.0,38.1,31.2,13.3,0000.0,0011.06,0003.25,0001.68
2022-06-22 00:50:00,,0833.4,5.01,0.00,29.4,27.8,00.0,38.1,31.2,13.3,0000.0,0011.00,0003.25,0001.67
2022-06-22 00:51:00,,0833.5,5.01,0.00,29.4,27.9,00.0,38.1,31.3,13.3,0000.0,0010.65,0003.25,0001.67
2022-06-22 00:52:00,,0833.5,5.01,0.00,29.4,28.1,00.0,38.2,31.3,13.3,0000.0,0010.89,0003.27,0001.67
2022-06-22 00:53:00,,0833.4,5.00,0.00,29.4,28.2,00.0,38.2,31.4,13.4,0000.0,0010.20,0003.31,0001.68
2022-06-22 00:54:00,,0833.4,5.01,0.00,29.4,28.4,00.0,38.2,31.4,13.4,0000.0,0009.88,0003.30,0001.67
2022-06-22 00:55:00,,0833.4,5.01,0.00,29.5,28.5,00.0,38.2,31.5,13.4,0000.0,0009.44,0003.27,0001.67
2022-06-22 00:56:00,,0833.5,5.01,0.00,29.5,28.6,00.0,38.2,31.5,13.4,0000.0,0008.67,0003.29,0001.68
2022-06-22 00:57:00,,0833.5,4.98,0.00,29.5,28.7,00.0,38.3,31.5,13.3,0000.0,0008.50,0003.31,0001.69
2022-06-22 00:58:00,,0833.5,4.99,0.00,29.6,28.7,00.0,38.3,31.6,13.3,0000.0,0007.87,0003.30,0001.68
2022-06-22 00:59:00,,0833.5,5.01,0.00,29.6,28.1,00.0,38.2,31.4,13.3,0000.0,0007.85,0003.31,0001.69
